Dewpoint
51 53 54 55 59 59 58 58 57 56 55 55 54 54 53 52 52 52 52 52 51 52 52 52 51 50 48 43 39 48 54 48 37 36 31 21 15 15 16 16 13 12 15 15 18 24 26
49 50 52 53 55 59 59 58 57 56 55 55 55 54 53 53 53 52 51 51 51 52 52 51 49 49 47 35 32 44 42 39 28 29 27 20 18 17 15 12 10 13 15 11 13 17 32
49 50 51 52 54 55 59 59 58 57 56 55 55 54 53 53 53 52 52 51 51 52 51 50 48 47 43 34 32 39 34 29 29 29 23 20 20 19 19 20 17 17 14 10 19 19 25
50 50 51 51 53 55 56 59 58 57 56 55 55 54 53 53 52 51 51 51 52 51 50 48 48 47 40 35 35 32 36 33 32 28 27 25 28 25 23 24 17 13 9 10 22 22 20
49 48 50 50 51 53 55 57 58 57 56 55 54 54 53 52 52 51 51 51 50 50 48 47 48 47 37 35 30 28 28 29 27 30 29 27 27 26 26 23 13 11 11 22 20 22 11
47 47 48 50 51 52 54 56 58 57 55 55 54 54 53 52 51 51 51 50 50 48 48 47 45 43 42 26 22 23 25 26 26 28 28 26 24 24 23 16 10 11 11 17 14 14 2
46 48 46 47 49 50 53 54 57 57 55 54 54 54 52 52 51 52 49 47 45 46 45 33 33 31 22 22 26 24 20 21 25 27 24 24 22 19 16 17 19 15 12 10 9 5 2
46 48 48 48 48 49 50 54 57 57 55 54 54 53 52 52 52 52 49 44 43 47 43 38 25 33 30 30 24 20 19 18 23 22 19 20 18 20 22 19 18 14 11 5 7 8 6
45 47 48 48 48 49 49 52 56 57 55 54 54 53 52 52 53 50 47 42 43 43 42 34 22 23 27 25 22 17 19 19 19 17 18 25 26 19 19 19 16 10 11 14 11 8 10
45 46 47 48 48 48 49 50 54 57 55 54 53 53 52 52 48 48 46 45 43 45 37 28 24 27 26 25 20 16 19 17 17 17 18 30 29 20 17 13 11 19 25 17 19 22 11
43 45 45 46 48 48 49 50 53 56 55 54 53 52 52 51 50 44 51 47 48 52 26 24 23 25 23 20 18 16 20 20 18 17 24 21 19 19 16 18 20 22 23 22 15 16 19
42 44 44 44 46 48 49 50 52 55 55 54 53 52 52 51 50 50 50 54 55 41 25 20 21 22 19 19 17 18 19 19 17 19 21 22 25 23 24 21 21 25 21 22 13 13 19
39 41 44 44 44 47 47 50 52 54 55 54 52 52 51 50 46 48 49 55 40 26 21 18 18 19 18 17 16 17 19 12 14 16 17 20 18 21 21 15 19 18 17 14 17 20 17
40 40 43 45 44 47 48 49 51 53 54 54 52 52 51 50 50 51 54 50 28 22 19 13 15 17 16 16 16 15 13 11 13 13 15 16 14 18 18 14 24 19 10 17 19 24 22
37 39 42 45 46 47 47 49 50 53 54 53 51 51 50 50 52 54 51 40 30 22 20 16 13 14 14 15 14 17 13 11 11 12 15 27 23 24 21 18 19 10 13 16 17 30 21
36 39 42 43 46 47 47 49 50 53 53 52 49 48 45 50 52 51 47 38 31 26 18 17 11 13 13 15 14 15 17 15 11 14 22 37 31 29 22 23 22 22 19 19 18 13 11
37 40 42 42 45 46 47 48 50 53 52 51 47 42 43 52 52 47 41 37 34 27 21 19 13 12 13 16 13 16 17 17 21 21 21 21 30 21 24 21 13 20 17 16 15 19 21
38 42 41 40 41 45 46 47 49 52 51 50 45 37 51 54 41 34 39 36 32 27 24 24 20 14 14 17 15 13 22 23 23 21 21 18 18 20 21 21 21 21 22 16 20 17 23
37 41 39 40 41 44 45 46 48 51 51 49 41 43 53 50 30 36 37 35 31 28 26 27 21 21 17 18 17 16 16 35 34 26 24 23 19 19 20 24 24 21 16 20 20 25 23
39 39 40 40 42 43 45 46 47 51 51 50 40 40 50 50 37 35 36 32 30 30 24 25 23 21 18 18 20 19 20 34 34 31 31 33 23 18 22 19 22 22 18 14 17 22 20
39 40 40 41 40 42 45 45 47 51 51 50 44 39 44 41 41 37 37 33 28 24 27 26 22 18 24 21 22 22 24 35 35 36 32 30 23 21 19 20 24 22 19 18 14 18 16
37 39 40 41 41 41 45 45 47 50 51 47 43 37 42 41 39 39 38 33 27 24 27 27 26 23 24 23 23 23 24 34 32 35 31 32 30 30 29 26 24 22 22 19 16 14 15
39 39 41 42 41 43 43 43 47 49 50 46 44 47 41 41 38 39 39 32 28 25 26 28 26 25 23 32 35 38 38 35 32 35 33 34 35 31 27 27 27 22 25 23 21 17 14
39 38 42 44 42 43 43 43 46 49 50 45 44 45 42 38 37 38 37 32 26 24 30 31 30 27 39 38 38 37 35 35 36 37 36 39 37 32 27 26 16 16 20 18 19 18 16
41 41 42 42 42 43 44 45 48 49 50 49 46 48 45 40 39 35 37 33 26 25 31 32 41 41 40 38 37 35 36 32 31 29 32 35 35 32 29 23 18 18 14 15 15 15 20
40 41 43 43 43 44 45 46 46 48 50 49 50 54 52 43 40 34 31 29 28 36 41 43 41 42 40 42 37 26 27 25 29 32 29 30 37 32 26 25 18 25 23 26 23 15 22
41 43 43 43 44 44 45 46 46 45 48 49 49 55 55 45 39 33 29 28 29 41 41 41 43 42 44 45 37 30 30 28 29 31 33 34 33 27 30 28 29 23 24 24 17 25 29
42 44 44 44 45 46 45 45 46 45 46 49 49 53 54 44 36 35 31 27 30 39 42 43 41 41 42 37 36 37 36 33 28 28 32 30 34 31 35 33 24 23 24 24 33 31 29
42 44 44 45 46 45 45 45 45 45 48 49 48 52 57 53 47 50 49 47 41 32 42 45 38 42 44 37 38 40 37 37 35 30 30 29 31 32 31 31 30 24 25 26 28 29 30
Wind_Speed
16 15 14 16 18 18 18 16 15 15 15 13 12 11 11 11 14 15 15 14 15 13 12 9 10 10 10 7 11 3 12 12 11 10 13 15 11 12 17 16 11 15 19 2 5 15 8
17 18 16 16 16 19 19 17 16 16 15 14 13 12 11 11 13 13 14 14 14 11 11 8 8 11 6 8 5 13 12 16 13 13 10 10 9 11 14 13 13 9 14 6 7 8 19
18 17 17 17 16 17 20 19 17 16 16 14 13 12 11 10 11 11 12 12 12 9 8 9 7 5 10 15 10 10 10 12 16 16 15 11 14 9 5 12 7 3 10 2 2 4 6
18 18 18 18 17 17 18 21 18 17 16 15 13 12 10 10 10 9 11 11 9 6 7 6 5 4 10 7 14 17 13 11 11 14 17 15 9 13 13 17 5 11 12 9 7 11 5
20 19 19 19 19 18 19 20 19 17 16 15 14 11 11 10 9 9 10 8 7 7 9 9 4 4 10 2 10 17 13 11 8 11 9 5 4 10 14 13 11 14 11 7 9 21 7
24 22 20 20 19 19 20 19 21 18 17 16 14 11 10 8 8 7 7 7 5 8 9 11 8 6 14 10 12 4 6 8 5 6 4 7 6 8 10 10 6 8 7 19 16 15 11
26 25 25 23 22 20 20 19 20 19 18 16 14 11 9 7 7 5 5 6 4 4 13 11 3 10 6 6 5 10 10 9 4 8 7 8 6 6 9 11 3 10 19 19 18 12 12
26 25 25 24 24 24 21 20 19 19 18 17 14 11 7 6 6 7 7 7 8 10 11 26 22 17 17 7 8 15 13 11 11 8 8 5 10 8 12 10 18 16 15 11 11 8 13
29 28 24 26 25 25 22 20 19 19 19 17 14 12 9 5 4 4 13 16 17 19 7 12 22 19 17 16 16 15 15 17 9 7 10 2 13 11 15 20 21 17 4 8 8 9 9
31 29 27 26 26 25 23 21 19 20 21 18 15 13 11 11 5 11 8 15 22 15 6 10 16 13 17 9 18 20 6 13 9 6 11 5 21 20 18 18 17 8 15 7 9 8 15
31 30 28 25 26 25 23 21 19 19 22 20 18 16 17 23 10 12 11 2 8 6 5 16 20 17 16 17 14 12 7 11 11 5 5 6 16 16 12 6 5 9 18 10 13 14 4
32 31 32 29 27 27 24 22 21 20 22 21 21 19 17 11 10 17 14 13 4 5 8 10 15 13 17 16 16 5 16 15 11 6 4 8 16 12 7 5 2 9 10 17 13 14 7
35 33 32 32 30 29 27 24 21 21 22 22 23 22 19 11 3 4 9 6 7 10 6 11 16 17 18 17 16 12 16 20 14 11 11 8 19 4 11 8 5 9 11 12 5 8 14
33 34 33 33 34 30 29 25 23 22 22 22 24 21 14 18 12 10 7 7 15 15 22 3 16 19 20 18 16 14 17 20 19 18 14 15 19 13 11 10 7 17 14 8 7 7 15
36 34 34 32 33 32 30 27 24 23 23 22 23 12 8 13 19 10 7 19 15 15 24 11 15 16 21 19 10 13 19 22 23 23 17 4 5 11 2 6 4 7 13 10 6 25 11
38 37 37 30 25 30 31 28 25 25 25 30 15 9 18 15 16 9 11 24 22 24 7 15 18 18 20 18 12 14 16 20 25 19 19 13 9 25 8 4 6 6 10 4 5 4 8
38 37 38 35 22 26 30 30 27 28 31 34 18 9 11 24 19 12 22 22 25 27 9 8 18 19 21 16 18 15 11 11 8 9 5 9 28 8 8 9 12 9 11 11 10 7 3
36 37 34 33 29 25 30 30 31 31 37 30 20 12 24 32 18 20 24 26 28 25 11 11 16 20 19 16 17 17 8 18 11 8 8 10 4 8 10 6 4 10 11 15 9 9 3
37 34 30 31 32 27 31 32 33 35 41 20 22 15 21 19 24 23 24 30 31 28 17 18 15 18 12 13 12 14 8 5 5 4 2 3 4 9 11 10 8 10 14 11 6 3 7
33 31 29 31 31 27 31 33 36 38 42 23 19 19 10 17 19 27 31 30 30 28 19 17 18 14 11 12 11 11 9 4 4 3 4 4 7 11 12 14 8 17 15 15 15 7 8
28 29 30 32 36 28 30 34 35 37 41 21 13 18 15 24 30 27 29 25 31 20 17 20 21 22 14 12 13 12 10 8 4 2 2 3 10 14 18 19 3 14 9 13 17 14 18
30 29 31 31 30 32 35 34 36 37 40 22 15 19 19 20 27 29 31 36 32 26 20 16 17 15 18 13 13 14 15 10 8 9 10 5 3 4 6 11 16 15 17 15 17 16 17
31 28 30 30 36 34 36 34 33 36 34 17 19 11 13 24 32 32 31 31 31 25 23 19 23 19 20 9 12 12 12 7 6 13 12 9 4 3 5 4 8 10 15 20 20 18 14
30 27 25 30 39 37 33 35 31 35 43 17 21 10 11 31 35 36 31 30 27 28 15 11 14 17 11 18 18 16 15 10 9 5 8 5 6 4 1 2 4 11 1 5 6 11 14
29 29 28 28 32 32 32 30 28 32 40 30 16 5 8 21 28 36 32 32 28 26 17 15 8 9 19 12 5 5 3 3 3 4 4 7 6 3 5 8 10 13 3 2 1 4 12
27 26 24 25 28 31 32 30 24 20 36 31 20 4 8 17 30 38 29 26 19 13 10 5 10 9 7 4 4 5 6 7 7 6 4 3 5 4 4 3 5 1 3 3 1 5 9
27 24 23 24 27 31 32 30 28 25 26 27 15 12 8 14 20 32 24 24 19 15 12 13 5 4 3 4 4 6 5 4 7 8 6 4 3 8 5 4 7 1 4 2 3 3 6
24 22 23 26 31 30 29 29 28 29 24 27 23 21 8 7 17 16 16 21 12 16 12 14 8 4 5 5 6 4 2 5 4 6 7 7 9 5 3 3 8 5 5 2 5 4 9
23 24 26 29 28 29 27 29 31 25 25 24 19 19 19 16 6 13 16 12 3 9 12 16 9 14 10 7 3 4 2 2 3 4 4 3 6 4 10 4 5 6 4 4 1 3 5
Wind_Direction
287 291 303 304 280 243 247 249 252 256 257 257 267 280 283 301 309 312 315 312 308 312 308 306 316 337 318 247 258 66 140 151 162 184 227 236 227 225 243 249 226 234 261 246 220 212 190
279 280 285 290 295 267 245 245 247 253 253 256 262 276 279 296 304 309 312 311 304 309 300 294 325 327 264 263 118 131 134 156 182 201 222 246 241 265 295 268 217 221 262 27 241 208 103
271 274 281 286 286 289 256 244 246 249 252 251 260 273 280 292 300 308 307 308 302 303 290 293 317 307 269 250 337 121 167 181 205 204 227 238 276 285 285 288 252 256 267 107 99 154 157
266 269 274 278 282 281 275 249 245 249 249 247 253 266 272 287 294 302 301 300 293 283 283 286 293 295 260 259 240 264 188 214 228 227 245 283 327 297 291 309 283 243 221 173 278 268 166
262 265 268 271 276 278 280 262 246 244 244 243 250 260 266 281 289 296 294 286 273 266 264 258 240 189 266 139 229 238 227 237 228 226 237 270 302 252 266 248 236 227 172 158 179 248 176
259 257 260 266 267 274 269 266 251 241 239 239 245 251 258 274 280 287 282 273 271 272 239 228 264 296 257 219 214 175 163 189 196 159 207 221 221 218 242 231 219 107 269 175 208 209 195
260 254 253 257 265 263 271 265 251 238 233 231 237 238 248 259 269 264 254 252 233 211 233 225 206 232 179 226 160 230 184 190 174 189 230 190 210 225 204 250 207 235 225 213 194 174 227
255 252 246 246 251 256 262 267 250 234 228 224 224 223 226 248 256 227 258 253 344 3 291 226 243 264 273 280 273 220 184 223 186 246 228 181 256 168 228 275 247 258 259 188 135 173 221
250 249 247 243 242 249 253 261 255 227 223 219 213 202 201 210 177 204 230 239 281 344 262 240 216 236 242 223 239 216 194 228 249 218 219 128 280 223 246 221 244 257 250 212 162 197 219
249 245 243 244 239 238 247 252 257 225 216 211 201 192 179 150 180 228 232 244 249 268 276 187 196 231 234 221 234 225 221 237 212 200 259 123 246 233 234 237 236 348 344 193 179 292 212
250 248 241 242 241 233 239 244 244 229 209 205 188 184 173 188 330 216 30 266 142 201 254 173 190 210 199 205 217 214 212 261 255 199 178 219 210 230 217 305 15 169 275 262 250 230 264
247 249 243 236 241 234 229 236 237 228 209 198 183 178 175 226 260 259 320 310 193 225 240 158 151 179 209 206 225 221 186 226 270 228 275 235 285 275 96 195 272 175 237 260 274 265 244
246 247 247 237 233 234 228 225 228 220 208 192 178 173 175 187 260 234 243 265 206 215 242 183 184 196 207 199 211 206 197 201 211 220 225 174 241 121 174 175 193 209 228 244 300 294 280
245 243 243 235 226 226 221 220 219 211 201 186 171 171 211 232 257 281 248 231 222 205 231 197 189 197 206 191 211 201 198 201 206 222 236 225 199 187 212 227 119 259 252 253 192 286 294
244 247 242 231 224 215 216 215 212 203 193 174 147 188 229 231 243 287 240 210 212 223 210 209 190 198 213 203 201 192 209 213 205 218 216 26 285 319 55 249 280 288 247 280 325 196 259
242 239 238 223 225 216 210 209 205 194 176 157 164 182 229 197 194 217 223 220 220 237 256 185 208 198 205 200 193 197 198 218 221 208 188 160 331 264 202 247 255 263 325 278 281 305 288
240 237 226 219 225 228 210 207 199 187 167 174 178 211 208 168 159 207 220 216 233 238 236 216 209 208 222 182 199 198 210 175 184 196 234 232 204 158 146 215 246 192 240 244 284 259 278
233 234 220 213 217 227 219 206 198 179 169 181 185 204 140 144 174 206 221 217 228 237 205 245 254 219 222 202 193 223 168 260 173 216 212 247 302 263 235 266 285 310 285 211 216 260 198
218 216 216 211 213 222 218 206 197 179 173 181 184 182 165 179 195 201 213 224 228 236 194 222 236 245 206 240 188 221 227 84 86 178 237 253 230 257 282 197 218 248 252 263 245 102 216
211 213 212 209 214 218 217 205 199 180 180 203 176 185 162 208 223 198 201 215 222 237 232 211 226 228 197 222 209 206 208 109 119 115 55 341 239 246 238 250 322 204 238 239 233 187 239
207 210 212 212 207 217 224 200 196 182 186 201 201 205 177 188 200 200 201 215 212 205 218 218 213 215 195 205 199 216 201 122 126 117 173 216 241 261 268 260 258 295 263 233 236 231 238
214 213 207 204 201 215 212 195 192 180 191 208 198 200 165 178 191 200 208 215 215 197 194 211 230 208 200 198 224 197 220 159 179 178 197 200 235 304 293 288 286 270 275 268 274 264 253
204 207 209 216 204 209 194 187 191 181 185 202 220 273 197 173 187 200 211 206 217 195 204 209 213 199 216 143 83 63 59 162 205 167 195 171 172 169 243 13 343 298 256 254 265 266 259
204 203 212 201 188 199 189 186 192 189 196 213 208 246 222 179 183 200 206 208 206 212 182 188 218 221 113 110 87 73 76 77 85 50 193 135 162 165 201 126 259 252 341 313 281 282 276
194 193 203 187 187 187 182 176 189 192 198 223 211 244 248 190 187 193 200 206 205 208 179 175 37 99 143 113 106 114 74 72 132 133 134 164 153 185 182 214 273 309 221 325 291 327 27
195 191 188 185 187 182 177 175 185 205 203 220 254 287 274 195 199 190 196 186 200 162 112 69 105 121 152 118 145 174 173 202 162 141 120 101 70 193 168 221 232 136 65 9 359 216 59
190 185 184 189 188 180 174 172 185 195 226 210 236 208 256 217 194 185 189 181 209 138 126 139 150 127 315 124 149 171 179 200 153 167 182 122 159 198 178 232 287 80 118 329 234 89 54
183 185 186 186 175 165 170 177 191 205 217 209 231 252 260 247 162 182 180 186 192 166 147 147 153 162 157 153 165 143 129 186 164 169 166 171 163 189 173 187 259 143 120 148 66 357 5
193 192 190 180 175 179 176 186 194 204 207 201 237 241 247 247 87 67 75 44 84 222 152 171 177 161 174 174 149 122 123 107 122 202 159 190 188 192 180 225 151 186 28 28 352 321 324